Location: *
(52.2090°N, 4.1550°W)
Time: 15:10:41
(UTC+00:00)

Cosmos 2297 - Pass Details

Date: 19 July 2019
Orbit: 836 x 858 km, 71.0° (Epoch: 23 August)

Event Time Altitude Azimuth Distance (km) Brightness Sun altitude
Rises 22:57:35 0° 330° (NNW) 3,402 8.6 -14.7°
Reaches altitude 10° 23:00:06 10° 335° (NNW) 2,466 7.5 -14.8°
Maximum altitude 23:05:37 52° 52° (NE) 1,043 4.3 -15.1°
Enters shadow 23:10:05 16° 125° (SE) 2,085 5.3 -15.3°
